JBU9900 TJBQ-KEWR

Flight info

Callsign JBU9900
Flight time 3h 29m
Altitude 33000
Route DONQU DCT LUCTI/M078F320 L454 RABAL/M078F340 L454 OKONU/N0456F350 DCT YAALE Y497 MOUGH/N0456F340 Y497 SUBBS DCT CYN DCT GXU/N0462F350 DCT RBV/N0357F160 V249 METRO PHLBO4
Aircraft A321/M-SDE3FGHIRWY/LB1

Departure

Time 2026-04-20 16:36
Airport Rafael Hernández International Airport (TJBQ)

Arrival

Time 2026-04-20 20:05
Airport Newark Liberty International Airport (KEWR)
Time Latitude Longitude Altitude Speed Heading
2026-04-20 16:18 18.49488 -67.13546 241 ft 0 kts 342°
2026-04-20 16:26 18.49466 -67.13537 240 ft 4 kts 333°
2026-04-20 16:27 18.49444 -67.13522 240 ft 4 kts 311°
2026-04-20 16:27 18.49433 -67.13500 239 ft 4 kts 265°
2026-04-20 16:27 18.49434 -67.13492 239 ft 0 kts 252°
2026-04-20 16:30 18.49433 -67.13496 239 ft 3 kts 252°
2026-04-20 16:30 18.49419 -67.13539 239 ft 8 kts 252°
2026-04-20 16:31 18.49400 -67.13604 239 ft 10 kts 253°
2026-04-20 16:31 18.49379 -67.13680 239 ft 11 kts 254°
2026-04-20 16:31 18.49355 -67.13761 240 ft 12 kts 252°
2026-04-20 16:31 18.49329 -67.13847 240 ft 13 kts 252°
2026-04-20 16:32 18.49303 -67.13939 240 ft 14 kts 252°
2026-04-20 16:32 18.49273 -67.14038 241 ft 15 kts 253°
2026-04-20 16:32 18.49243 -67.14143 242 ft 15 kts 253°
2026-04-20 16:32 18.49208 -67.14246 243 ft 15 kts 249°
2026-04-20 16:33 18.49180 -67.14330 243 ft 11 kts 252°
2026-04-20 16:33 18.49156 -67.14411 243 ft 12 kts 252°
2026-04-20 16:33 18.49131 -67.14496 244 ft 12 kts 252°
2026-04-20 16:33 18.49104 -67.14548 244 ft 6 kts 225°
2026-04-20 16:34 18.49064 -67.14558 244 ft 6 kts 172°
2026-04-20 16:34 18.49018 -67.14545 244 ft 8 kts 162°
2026-04-20 16:34 18.49005 -67.14515 244 ft 4 kts 82°
2026-04-20 16:34 18.49008 -67.14505 245 ft 0 kts 67°
2026-04-20 16:35 18.49030 -67.14445 245 ft 35 kts 71°
2026-04-20 16:35 18.49173 -67.13973 239 ft 98 kts 73°
2026-04-20 16:35 18.49434 -67.13103 235 ft 149 kts 72°
2026-04-20 16:35 18.49775 -67.11958 418 ft 174 kts 72°
2026-04-20 16:36 18.50135 -67.10744 1104 ft 173 kts 72°
2026-04-20 16:36 18.50504 -67.09532 1649 ft 177 kts 72°
2026-04-20 16:36 18.51009 -67.08280 1784 ft 198 kts 52°
2026-04-20 16:36 18.52195 -67.07408 1947 ft 224 kts 20°
2026-04-20 16:37 18.53832 -67.07418 2081 ft 255 kts 344°
2026-04-20 16:37 18.55517 -67.08173 2470 ft 269 kts 338°
2026-04-20 16:37 18.57233 -67.09003 3052 ft 274 kts 338°
2026-04-20 16:37 18.58978 -67.09852 3635 ft 278 kts 338°
2026-04-20 16:38 18.60748 -67.10711 4255 ft 281 kts 338°
2026-04-20 16:38 18.62536 -67.11577 4865 ft 284 kts 338°
2026-04-20 16:38 18.64345 -67.12448 5449 ft 287 kts 337°
2026-04-20 16:38 18.66166 -67.13322 6072 ft 288 kts 337°
2026-04-20 16:39 18.67990 -67.14194 6681 ft 289 kts 338°
2026-04-20 16:39 18.69828 -67.15070 7245 ft 291 kts 337°
2026-04-20 16:39 18.71677 -67.15952 7815 ft 292 kts 337°
2026-04-20 16:39 18.73536 -67.16838 8388 ft 294 kts 337°
2026-04-20 16:40 18.75405 -67.17732 8956 ft 296 kts 337°
2026-04-20 16:40 18.77283 -67.18632 9528 ft 297 kts 337°
2026-04-20 16:40 18.79173 -67.19535 10062 ft 300 kts 336°
2026-04-20 16:40 18.81126 -67.20468 10227 ft 317 kts 336°
2026-04-20 16:41 18.83188 -67.21452 10351 ft 334 kts 336°
2026-04-20 16:41 18.85357 -67.22488 10472 ft 350 kts 336°
2026-04-20 16:41 18.87626 -67.23576 10593 ft 366 kts 336°
2026-04-20 16:41 18.89978 -67.24707 10847 ft 375 kts 336°
2026-04-20 16:42 18.92363 -67.25852 11313 ft 378 kts 336°
2026-04-20 16:42 18.94761 -67.27003 11816 ft 380 kts 336°
2026-04-20 16:42 18.97174 -67.28161 12325 ft 382 kts 336°
2026-04-20 16:42 18.99596 -67.29323 12844 ft 383 kts 336°
2026-04-20 16:43 19.02031 -67.30489 13352 ft 385 kts 336°
2026-04-20 16:43 19.04477 -67.31660 13864 ft 387 kts 336°
2026-04-20 16:43 19.06934 -67.32839 14320 ft 389 kts 336°
2026-04-20 16:43 19.09401 -67.34024 14777 ft 390 kts 335°
2026-04-20 16:44 19.11844 -67.35200 15244 ft 392 kts 335°
2026-04-20 16:44 19.14331 -67.36396 15699 ft 393 kts 335°
2026-04-20 16:44 19.16823 -67.37592 16169 ft 395 kts 335°
2026-04-20 16:44 19.19326 -67.38794 16631 ft 396 kts 335°
2026-04-20 16:45 19.21845 -67.40005 17081 ft 398 kts 335°
2026-04-20 16:45 19.24371 -67.41221 17518 ft 400 kts 335°
2026-04-20 16:45 19.26915 -67.42448 17944 ft 403 kts 335°
2026-04-20 16:45 19.29473 -67.43682 18345 ft 406 kts 334°
2026-04-20 16:46 19.32048 -67.44925 18708 ft 407 kts 335°
2026-04-20 16:46 19.34631 -67.46172 19066 ft 409 kts 335°
2026-04-20 16:46 19.37229 -67.47421 19434 ft 410 kts 335°
2026-04-20 16:46 19.39834 -67.48674 19781 ft 412 kts 335°
2026-04-20 16:47 19.42449 -67.49932 20124 ft 414 kts 335°
2026-04-20 16:47 19.45073 -67.51197 20464 ft 415 kts 335°
2026-04-20 16:47 19.47709 -67.52468 20803 ft 417 kts 335°
2026-04-20 16:47 19.50354 -67.53744 21143 ft 418 kts 335°
2026-04-20 16:48 19.53006 -67.55022 21478 ft 420 kts 335°
2026-04-20 16:48 19.55669 -67.56307 21809 ft 421 kts 335°
2026-04-20 16:48 19.58336 -67.57598 22137 ft 422 kts 335°
2026-04-20 16:48 19.61009 -67.58894 22473 ft 423 kts 335°
2026-04-20 16:49 19.63692 -67.60194 22790 ft 425 kts 335°
2026-04-20 16:49 19.66384 -67.61495 23110 ft 426 kts 335°
2026-04-20 16:49 19.69084 -67.62799 23427 ft 427 kts 335°
2026-04-20 16:49 19.71794 -67.64108 23729 ft 429 kts 335°
2026-04-20 16:50 19.74510 -67.65423 23994 ft 430 kts 335°
2026-04-20 16:50 19.77235 -67.66742 24274 ft 431 kts 335°
2026-04-20 16:50 19.79961 -67.68065 24547 ft 431 kts 334°
2026-04-20 16:50 19.82690 -67.69395 24831 ft 432 kts 334°
2026-04-20 16:51 19.85427 -67.70727 25099 ft 433 kts 335°
2026-04-20 16:51 19.88171 -67.72061 25361 ft 434 kts 334°
2026-04-20 16:51 19.90919 -67.73394 25623 ft 435 kts 334°
2026-04-20 16:51 19.93677 -67.74728 25884 ft 436 kts 335°
2026-04-20 16:52 19.96437 -67.76064 26149 ft 437 kts 334°
2026-04-20 16:52 19.99205 -67.77408 26413 ft 437 kts 334°
2026-04-20 16:52 20.01935 -67.78739 26678 ft 438 kts 334°
2026-04-20 16:52 20.04708 -67.80090 26943 ft 439 kts 334°
2026-04-20 16:53 20.07491 -67.81444 27205 ft 440 kts 334°
2026-04-20 16:53 20.10275 -67.82801 27508 ft 440 kts 334°
2026-04-20 16:53 20.13047 -67.84155 27900 ft 437 kts 334°
2026-04-20 16:53 20.15805 -67.85500 28282 ft 435 kts 334°
2026-04-20 16:54 20.18552 -67.86837 28667 ft 433 kts 334°
2026-04-20 16:54 20.21286 -67.88169 29039 ft 431 kts 334°
2026-04-20 16:54 20.24005 -67.89496 29404 ft 429 kts 334°
2026-04-20 16:54 20.26716 -67.90819 29776 ft 427 kts 334°
2026-04-20 16:55 20.29414 -67.92135 30142 ft 425 kts 334°
2026-04-20 16:55 20.32100 -67.93440 30451 ft 424 kts 334°
2026-04-20 16:55 20.34773 -67.94743 30753 ft 422 kts 334°
2026-04-20 16:55 20.37434 -67.96044 31045 ft 420 kts 334°
2026-04-20 16:56 20.40083 -67.97342 31341 ft 418 kts 335°
2026-04-20 16:56 20.42723 -67.98637 31621 ft 417 kts 335°
2026-04-20 16:56 20.45348 -67.99927 31892 ft 415 kts 335°
2026-04-20 16:56 20.47966 -68.01214 32176 ft 413 kts 335°
2026-04-20 16:57 20.50575 -68.02493 32462 ft 412 kts 335°
2026-04-20 16:57 20.53174 -68.03764 32740 ft 410 kts 335°
2026-04-20 16:57 20.55762 -68.05031 32992 ft 409 kts 335°
2026-04-20 16:57 20.58348 -68.06291 33080 ft 409 kts 335°
2026-04-20 16:58 20.63511 -68.08812 33091 ft 407 kts 335°
2026-04-20 16:58 20.68659 -68.11338 33091 ft 407 kts 335°
2026-04-20 16:59 20.74024 -68.13180 33092 ft 407 kts 347°
2026-04-20 16:59 20.79570 -68.14383 33094 ft 406 kts 347°
2026-04-20 17:00 20.87878 -68.16207 33100 ft 406 kts 347°
2026-04-20 17:01 20.93412 -68.17420 33107 ft 406 kts 347°
2026-04-20 17:01 20.98939 -68.18635 33106 ft 405 kts 347°
2026-04-20 17:02 21.04418 -68.19844 33029 ft 404 kts 347°
2026-04-20 17:02 21.09946 -68.21054 33096 ft 408 kts 343°
2026-04-20 17:03 21.15580 -68.22294 33094 ft 418 kts 343°
2026-04-20 17:03 21.21339 -68.23564 33095 ft 427 kts 343°
2026-04-20 17:04 21.27217 -68.24864 33091 ft 434 kts 343°
2026-04-20 17:04 21.33138 -68.26169 33092 ft 435 kts 344°
2026-04-20 17:05 21.39064 -68.27474 33092 ft 435 kts 343°
2026-04-20 17:05 21.44991 -68.28784 33097 ft 435 kts 343°
2026-04-20 17:06 21.50919 -68.30100 33096 ft 435 kts 343°
2026-04-20 17:06 21.56849 -68.31407 33104 ft 435 kts 343°
2026-04-20 17:07 21.62788 -68.32718 33105 ft 436 kts 343°
2026-04-20 17:07 21.68726 -68.34036 33112 ft 436 kts 343°
2026-04-20 17:08 21.74664 -68.35354 33110 ft 436 kts 343°
2026-04-20 17:08 21.80600 -68.36675 33112 ft 436 kts 343°
2026-04-20 17:09 21.86537 -68.37997 33114 ft 436 kts 343°
2026-04-20 17:09 21.92472 -68.39316 33109 ft 435 kts 343°
2026-04-20 17:10 21.98406 -68.40639 33116 ft 435 kts 343°
2026-04-20 17:10 22.04339 -68.41948 33114 ft 435 kts 343°
2026-04-20 17:11 22.10271 -68.43269 33110 ft 435 kts 343°
2026-04-20 17:11 22.16196 -68.44602 33115 ft 435 kts 343°
2026-04-20 17:12 22.22120 -68.45933 33109 ft 435 kts 343°
2026-04-20 17:12 22.28046 -68.47256 33105 ft 435 kts 343°
2026-04-20 17:13 22.32973 -68.48357 33109 ft 435 kts 343°
2026-04-20 17:13 22.38897 -68.49684 33116 ft 435 kts 343°
2026-04-20 17:14 22.44825 -68.51012 33112 ft 435 kts 343°
2026-04-20 17:14 22.50751 -68.52343 33113 ft 435 kts 343°
2026-04-20 17:15 22.56678 -68.53670 33120 ft 435 kts 343°
2026-04-20 17:15 22.62609 -68.55002 33119 ft 435 kts 343°
2026-04-20 17:16 22.68539 -68.56334 33119 ft 435 kts 343°
2026-04-20 17:16 22.74470 -68.57665 33117 ft 435 kts 343°
2026-04-20 17:17 22.80404 -68.59008 33115 ft 436 kts 343°
2026-04-20 17:17 22.86336 -68.60351 33115 ft 436 kts 343°
2026-04-20 17:18 22.92274 -68.61691 33117 ft 436 kts 343°
2026-04-20 17:18 22.98215 -68.63027 33116 ft 436 kts 343°
2026-04-20 17:19 23.04119 -68.64363 33117 ft 436 kts 343°
2026-04-20 17:19 23.10062 -68.65712 33119 ft 437 kts 343°
2026-04-20 17:20 23.16015 -68.67063 33124 ft 437 kts 343°
2026-04-20 17:20 23.21971 -68.68412 33121 ft 437 kts 343°
2026-04-20 17:21 23.27927 -68.69759 33122 ft 437 kts 343°
2026-04-20 17:21 23.33881 -68.71109 33120 ft 437 kts 343°
2026-04-20 17:22 23.39836 -68.72467 33122 ft 437 kts 343°
2026-04-20 17:22 23.45791 -68.73814 33121 ft 437 kts 343°
2026-04-20 17:23 23.51744 -68.75174 33122 ft 437 kts 343°
2026-04-20 17:23 23.57697 -68.76537 33116 ft 437 kts 343°
2026-04-20 17:24 23.63656 -68.77897 33120 ft 437 kts 343°
2026-04-20 17:24 23.69614 -68.79251 33114 ft 438 kts 343°
2026-04-20 17:25 23.75577 -68.80622 33112 ft 438 kts 343°
2026-04-20 17:25 23.81540 -68.81990 33113 ft 438 kts 343°
2026-04-20 17:26 23.87504 -68.83357 33119 ft 438 kts 343°
2026-04-20 17:26 23.93472 -68.84724 33117 ft 438 kts 343°
2026-04-20 17:27 23.99400 -68.86078 33120 ft 438 kts 343°
2026-04-20 17:27 24.05368 -68.87444 33121 ft 438 kts 343°
2026-04-20 17:28 24.11332 -68.88819 33116 ft 438 kts 342°
2026-04-20 17:28 24.17301 -68.90197 33120 ft 438 kts 342°
2026-04-20 17:29 24.23265 -68.91571 33117 ft 438 kts 342°
2026-04-20 17:29 24.29223 -68.92949 33116 ft 438 kts 342°
2026-04-20 17:30 24.35180 -68.94325 33117 ft 437 kts 342°
2026-04-20 17:30 24.41139 -68.95698 33115 ft 438 kts 342°
2026-04-20 17:31 24.47102 -68.97066 33114 ft 438 kts 342°
2026-04-20 17:31 24.53061 -68.98446 33111 ft 438 kts 342°
2026-04-20 17:32 24.59023 -68.99832 33113 ft 438 kts 342°
2026-04-20 17:32 24.64985 -69.01215 33119 ft 438 kts 342°
2026-04-20 17:33 24.70948 -69.02606 33114 ft 438 kts 342°
2026-04-20 17:33 24.76916 -69.03990 33117 ft 438 kts 342°
2026-04-20 17:34 24.82884 -69.05379 33115 ft 438 kts 342°
2026-04-20 17:34 24.88853 -69.06766 33112 ft 438 kts 343°
2026-04-20 17:35 24.94818 -69.08152 33119 ft 438 kts 342°
2026-04-20 17:35 25.00783 -69.09551 33119 ft 439 kts 343°
2026-04-20 17:36 25.06744 -69.10827 33109 ft 440 kts 344°
2026-04-20 17:36 25.12775 -69.12017 33111 ft 441 kts 345°
2026-04-20 17:37 25.18808 -69.13232 33114 ft 441 kts 344°
2026-04-20 17:37 25.24834 -69.14485 33113 ft 441 kts 344°
2026-04-20 17:38 25.30868 -69.15740 33112 ft 441 kts 344°
2026-04-20 17:38 25.36906 -69.16991 33110 ft 442 kts 344°
2026-04-20 17:39 25.42954 -69.18243 33112 ft 442 kts 344°
2026-04-20 17:39 25.49007 -69.19491 33113 ft 443 kts 344°
2026-04-20 17:40 25.55062 -69.20747 33109 ft 443 kts 344°
2026-04-20 17:40 25.61125 -69.22006 33112 ft 443 kts 344°
2026-04-20 17:41 25.67187 -69.23271 33115 ft 444 kts 344°
2026-04-20 17:41 25.73253 -69.24540 33110 ft 444 kts 344°
2026-04-20 17:41 25.76295 -69.25176 33222 ft 445 kts 344°
2026-04-20 17:42 25.79337 -69.25810 33439 ft 445 kts 344°
2026-04-20 17:42 25.82376 -69.26440 33676 ft 444 kts 344°
2026-04-20 17:42 25.85412 -69.27068 33910 ft 444 kts 344°
2026-04-20 17:42 25.88445 -69.27700 34072 ft 444 kts 344°
2026-04-20 17:43 25.91477 -69.28334 34093 ft 443 kts 344°
2026-04-20 17:43 25.97501 -69.29597 34097 ft 444 kts 344°
2026-04-20 17:44 26.03573 -69.30870 34090 ft 444 kts 343°
2026-04-20 17:44 26.09656 -69.32151 34092 ft 445 kts 343°
2026-04-20 17:45 26.15751 -69.33425 34095 ft 446 kts 343°
2026-04-20 17:45 26.21858 -69.34710 34100 ft 447 kts 343°
2026-04-20 17:46 26.27975 -69.35994 34100 ft 448 kts 343°
2026-04-20 17:46 26.34100 -69.37277 34107 ft 448 kts 343°
2026-04-20 17:47 26.40233 -69.38567 34108 ft 449 kts 343°
2026-04-20 17:47 26.46374 -69.39869 34105 ft 449 kts 343°
2026-04-20 17:48 26.52516 -69.41172 34107 ft 450 kts 343°
2026-04-20 17:48 26.58667 -69.42468 34107 ft 450 kts 343°
2026-04-20 17:49 26.64822 -69.43765 34114 ft 450 kts 343°
2026-04-20 17:49 26.70978 -69.45074 34108 ft 450 kts 343°
2026-04-20 17:50 26.77135 -69.46378 34110 ft 451 kts 343°
2026-04-20 17:50 26.83295 -69.47682 34110 ft 451 kts 343°
2026-04-20 17:51 26.89456 -69.48992 34115 ft 451 kts 343°
2026-04-20 17:51 26.95579 -69.50300 34114 ft 451 kts 343°
2026-04-20 17:52 27.01784 -69.51625 34110 ft 451 kts 343°
2026-04-20 17:52 27.07908 -69.52923 34114 ft 451 kts 344°
2026-04-20 17:53 27.14073 -69.54241 34113 ft 451 kts 343°
2026-04-20 17:53 27.20237 -69.55564 34113 ft 451 kts 344°
2026-04-20 17:54 27.26408 -69.56878 34107 ft 451 kts 344°
2026-04-20 17:54 27.32571 -69.58198 34105 ft 451 kts 344°
2026-04-20 17:55 27.38737 -69.59520 34106 ft 451 kts 344°
2026-04-20 17:55 27.44901 -69.60844 34107 ft 451 kts 344°
2026-04-20 17:56 27.51064 -69.62174 34103 ft 451 kts 344°
2026-04-20 17:56 27.57224 -69.63505 34107 ft 451 kts 344°
2026-04-20 17:57 27.63387 -69.64824 34107 ft 451 kts 344°
2026-04-20 17:57 27.69544 -69.66149 34104 ft 450 kts 344°
2026-04-20 17:58 27.75703 -69.67483 34098 ft 451 kts 344°
2026-04-20 17:58 27.81862 -69.68812 34101 ft 451 kts 344°
2026-04-20 17:59 27.88026 -69.70145 34107 ft 451 kts 344°
2026-04-20 17:59 27.94193 -69.71483 34107 ft 451 kts 344°
2026-04-20 18:00 28.00360 -69.72830 34111 ft 452 kts 344°
2026-04-20 18:00 28.06491 -69.74157 34111 ft 452 kts 344°
2026-04-20 18:01 28.12662 -69.75489 34108 ft 451 kts 344°
2026-04-20 18:01 28.18831 -69.76827 34107 ft 451 kts 344°
2026-04-20 18:02 28.24997 -69.78177 34111 ft 452 kts 343°
2026-04-20 18:02 28.31171 -69.79526 34106 ft 452 kts 344°
2026-04-20 18:03 28.37343 -69.80876 34108 ft 452 kts 344°
2026-04-20 18:03 28.42479 -69.82008 34109 ft 452 kts 343°
2026-04-20 18:04 28.48657 -69.83365 34111 ft 453 kts 344°
2026-04-20 18:04 28.54845 -69.84716 34109 ft 453 kts 343°
2026-04-20 18:05 28.64143 -69.86754 34101 ft 455 kts 343°
2026-04-20 18:05 28.70363 -69.88123 34095 ft 456 kts 343°
2026-04-20 18:06 28.76601 -69.89491 34088 ft 457 kts 343°
2026-04-20 18:06 28.82856 -69.90868 34088 ft 459 kts 343°
2026-04-20 18:07 28.89125 -69.92251 34093 ft 459 kts 343°
2026-04-20 18:07 28.95400 -69.93644 34104 ft 459 kts 343°
2026-04-20 18:08 29.01672 -69.95038 34106 ft 459 kts 342°
2026-04-20 18:08 29.07942 -69.96435 34112 ft 459 kts 342°
2026-04-20 18:09 29.14211 -69.97820 34115 ft 459 kts 342°
2026-04-20 18:09 29.20477 -69.99201 34114 ft 458 kts 342°
2026-04-20 18:10 29.26730 -70.00595 34114 ft 458 kts 342°
2026-04-20 18:10 29.32981 -70.01980 34103 ft 457 kts 342°
2026-04-20 18:11 29.39223 -70.03369 34107 ft 457 kts 342°
2026-04-20 18:11 29.45457 -70.04767 34108 ft 456 kts 342°
2026-04-20 18:12 29.51685 -70.06165 34110 ft 456 kts 342°
2026-04-20 18:12 29.57912 -70.07548 34114 ft 456 kts 342°
2026-04-20 18:13 29.64133 -70.08937 34114 ft 455 kts 342°
2026-04-20 18:13 29.70344 -70.10336 34111 ft 454 kts 342°
2026-04-20 18:14 29.76546 -70.11728 34109 ft 454 kts 342°
2026-04-20 18:14 29.82744 -70.13116 34107 ft 453 kts 342°
2026-04-20 18:15 29.88933 -70.14511 34107 ft 453 kts 342°
2026-04-20 18:15 29.95080 -70.15903 34106 ft 453 kts 342°
2026-04-20 18:16 30.01264 -70.17297 34104 ft 453 kts 342°
2026-04-20 18:16 30.07449 -70.18698 34103 ft 453 kts 341°
2026-04-20 18:17 30.13636 -70.20101 34104 ft 453 kts 341°
2026-04-20 18:17 30.19824 -70.21508 34102 ft 454 kts 341°
2026-04-20 18:18 30.26022 -70.22914 34099 ft 454 kts 341°
2026-04-20 18:18 30.32232 -70.24323 34094 ft 455 kts 341°
2026-04-20 18:19 30.38446 -70.25745 34100 ft 456 kts 341°
2026-04-20 18:19 30.44672 -70.27158 34097 ft 456 kts 341°
2026-04-20 18:20 30.50911 -70.28566 34102 ft 457 kts 341°
2026-04-20 18:20 30.57157 -70.29995 34104 ft 458 kts 341°
2026-04-20 18:21 30.63412 -70.31436 34102 ft 459 kts 341°
2026-04-20 18:21 30.69686 -70.32874 34098 ft 460 kts 341°
2026-04-20 18:22 30.75976 -70.34312 34108 ft 461 kts 341°
2026-04-20 18:22 30.82280 -70.35755 34111 ft 462 kts 340°
2026-04-20 18:23 30.88546 -70.37194 34115 ft 462 kts 340°
2026-04-20 18:23 30.94858 -70.38645 34117 ft 463 kts 340°
2026-04-20 18:24 31.01174 -70.40098 34121 ft 463 kts 340°
2026-04-20 18:24 31.07484 -70.41562 34127 ft 462 kts 340°
2026-04-20 18:25 31.13797 -70.43025 34125 ft 463 kts 340°
2026-04-20 18:25 31.20113 -70.44483 34131 ft 463 kts 340°
2026-04-20 18:26 31.26430 -70.45942 34131 ft 462 kts 340°
2026-04-20 18:26 31.32739 -70.47411 34140 ft 462 kts 340°
2026-04-20 18:27 31.39048 -70.48875 34137 ft 462 kts 340°
2026-04-20 18:27 31.45353 -70.50346 34141 ft 462 kts 340°
2026-04-20 18:28 31.51661 -70.51816 34131 ft 462 kts 340°
2026-04-20 18:28 31.57967 -70.53288 34138 ft 462 kts 340°
2026-04-20 18:29 31.64269 -70.54760 34141 ft 462 kts 340°
2026-04-20 18:29 31.70574 -70.56234 34149 ft 462 kts 340°
2026-04-20 18:30 31.76877 -70.57712 34150 ft 462 kts 340°
2026-04-20 18:30 31.83182 -70.59191 34156 ft 462 kts 340°
2026-04-20 18:31 31.89488 -70.60665 34153 ft 462 kts 340°
2026-04-20 18:31 31.95786 -70.62156 34166 ft 462 kts 340°
2026-04-20 18:32 32.02038 -70.63635 34158 ft 461 kts 340°
2026-04-20 18:32 32.08334 -70.65120 34166 ft 461 kts 340°
2026-04-20 18:33 32.14632 -70.66605 34157 ft 461 kts 340°
2026-04-20 18:33 32.20926 -70.68095 34158 ft 461 kts 340°
2026-04-20 18:34 32.27216 -70.69586 34162 ft 461 kts 340°
2026-04-20 18:34 32.33512 -70.71077 34163 ft 461 kts 340°
2026-04-20 18:35 32.39804 -70.72573 34169 ft 461 kts 340°
2026-04-20 18:35 32.46098 -70.74071 34166 ft 461 kts 340°
2026-04-20 18:36 32.52388 -70.75577 34169 ft 461 kts 340°
2026-04-20 18:36 32.58680 -70.77079 34171 ft 461 kts 340°
2026-04-20 18:37 32.64975 -70.78581 34182 ft 461 kts 340°
2026-04-20 18:37 32.71269 -70.80087 34181 ft 461 kts 340°
2026-04-20 18:38 32.77566 -70.81603 34179 ft 462 kts 340°
2026-04-20 18:38 32.83860 -70.83118 34181 ft 462 kts 340°
2026-04-20 18:39 32.90164 -70.84628 34183 ft 462 kts 340°
2026-04-20 18:39 32.96464 -70.86130 34187 ft 462 kts 340°
2026-04-20 18:40 33.02767 -70.87652 34189 ft 462 kts 340°
2026-04-20 18:40 33.09070 -70.89179 34194 ft 462 kts 340°
2026-04-20 18:41 33.15333 -70.90689 34194 ft 462 kts 340°
2026-04-20 18:41 33.21636 -70.92216 34191 ft 462 kts 340°
2026-04-20 18:42 33.27942 -70.93745 34194 ft 462 kts 340°
2026-04-20 18:42 33.34251 -70.95280 34191 ft 463 kts 340°
2026-04-20 18:43 33.40559 -70.96811 34203 ft 463 kts 340°
2026-04-20 18:43 33.46869 -70.98350 34205 ft 463 kts 340°
2026-04-20 18:44 33.53176 -70.99895 34203 ft 463 kts 340°
2026-04-20 18:44 33.59485 -71.01442 34210 ft 463 kts 340°
2026-04-20 18:45 33.65795 -71.02980 34214 ft 463 kts 340°
2026-04-20 18:45 33.72111 -71.04529 34212 ft 463 kts 340°
2026-04-20 18:46 33.78426 -71.06075 34205 ft 463 kts 340°
2026-04-20 18:46 33.84744 -71.07620 34212 ft 464 kts 340°
2026-04-20 18:47 33.91069 -71.09180 34213 ft 464 kts 340°
2026-04-20 18:47 33.97395 -71.10744 34226 ft 464 kts 340°
2026-04-20 18:48 34.03723 -71.12308 34229 ft 464 kts 340°
2026-04-20 18:48 34.10055 -71.13871 34228 ft 465 kts 340°
2026-04-20 18:49 34.16389 -71.15433 34232 ft 465 kts 339°
2026-04-20 18:49 34.22718 -71.17006 34234 ft 464 kts 339°
2026-04-20 18:50 34.27980 -71.18319 34232 ft 465 kts 339°
2026-04-20 18:50 34.35344 -71.20155 34232 ft 465 kts 339°
2026-04-20 18:51 34.41684 -71.21730 34228 ft 465 kts 339°
2026-04-20 18:51 34.48026 -71.23318 34231 ft 465 kts 339°
2026-04-20 18:52 34.53338 -71.24652 34238 ft 466 kts 339°
2026-04-20 18:52 34.59691 -71.26241 34239 ft 466 kts 339°
2026-04-20 18:53 34.66045 -71.27827 34242 ft 466 kts 339°
2026-04-20 18:53 34.72360 -71.29414 34244 ft 467 kts 339°
2026-04-20 18:54 34.78722 -71.31013 34246 ft 467 kts 339°
2026-04-20 18:54 34.85091 -71.32613 34254 ft 467 kts 339°
2026-04-20 18:55 34.91461 -71.34219 34254 ft 468 kts 338°
2026-04-20 18:55 34.97832 -71.35831 34258 ft 468 kts 338°
2026-04-20 18:56 35.04206 -71.37447 34260 ft 468 kts 338°
2026-04-20 18:56 35.10585 -71.39065 34258 ft 468 kts 338°
2026-04-20 18:57 35.16964 -71.40687 34262 ft 468 kts 338°
2026-04-20 18:57 35.23347 -71.42309 34259 ft 468 kts 338°
2026-04-20 18:58 35.29726 -71.43937 34264 ft 468 kts 338°
2026-04-20 18:58 35.36113 -71.45560 34268 ft 469 kts 338°
2026-04-20 18:59 35.42503 -71.47179 34270 ft 469 kts 338°
2026-04-20 18:59 35.48888 -71.48820 34268 ft 469 kts 338°
2026-04-20 19:00 35.55273 -71.50467 34269 ft 469 kts 338°
2026-04-20 19:00 35.61671 -71.52106 34271 ft 470 kts 338°
2026-04-20 19:01 35.68066 -71.53752 34273 ft 470 kts 338°
2026-04-20 19:01 35.74471 -71.55398 34267 ft 470 kts 338°
2026-04-20 19:02 35.80881 -71.57053 34273 ft 471 kts 338°
2026-04-20 19:02 35.87252 -71.58702 34276 ft 471 kts 338°
2026-04-20 19:03 35.93673 -71.60372 34265 ft 472 kts 337°
2026-04-20 19:03 36.00144 -71.62057 34275 ft 472 kts 338°
2026-04-20 19:04 36.06540 -71.63710 34275 ft 473 kts 338°
2026-04-20 19:04 36.12982 -71.65378 34272 ft 473 kts 337°
2026-04-20 19:05 36.19429 -71.67064 34271 ft 474 kts 337°
2026-04-20 19:05 36.25883 -71.68746 34278 ft 474 kts 337°
2026-04-20 19:06 36.32339 -71.70433 34276 ft 474 kts 337°
2026-04-20 19:06 36.38800 -71.72126 34275 ft 475 kts 337°
2026-04-20 19:07 36.45266 -71.73826 34274 ft 475 kts 337°
2026-04-20 19:07 36.51738 -71.75533 34278 ft 475 kts 337°
2026-04-20 19:08 36.61448 -71.78106 34279 ft 476 kts 337°
2026-04-20 19:09 36.67931 -71.79809 34277 ft 477 kts 337°
2026-04-20 19:09 36.74425 -71.81515 34274 ft 477 kts 337°
2026-04-20 19:10 36.80918 -71.83228 34272 ft 477 kts 337°
2026-04-20 19:10 36.87414 -71.84957 34275 ft 477 kts 337°
2026-04-20 19:11 36.93908 -71.86686 34281 ft 478 kts 337°
2026-04-20 19:11 37.00411 -71.88423 34278 ft 478 kts 337°
2026-04-20 19:12 37.06914 -71.90156 34274 ft 478 kts 338°
2026-04-20 19:12 37.13425 -71.91887 34280 ft 478 kts 338°
2026-04-20 19:13 37.19894 -71.93617 34287 ft 478 kts 338°
2026-04-20 19:13 37.26405 -71.95366 34287 ft 479 kts 338°
2026-04-20 19:14 37.33073 -71.96497 34288 ft 496 kts 352°
2026-04-20 19:14 37.39984 -71.96399 34290 ft 497 kts 352°
2026-04-20 19:15 37.46901 -71.96303 34281 ft 497 kts 352°
2026-04-20 19:15 37.53817 -71.96226 34276 ft 497 kts 352°
2026-04-20 19:16 37.60735 -71.96152 34282 ft 497 kts 352°
2026-04-20 19:16 37.67654 -71.96080 34286 ft 497 kts 352°
2026-04-20 19:17 37.74575 -71.96003 34284 ft 498 kts 352°
2026-04-20 19:17 37.81499 -71.95910 34279 ft 498 kts 352°
2026-04-20 19:18 37.88427 -71.95811 34279 ft 498 kts 352°
2026-04-20 19:18 37.95352 -71.95732 34276 ft 498 kts 352°
2026-04-20 19:19 38.02276 -71.95658 34272 ft 498 kts 352°
2026-04-20 19:19 38.09201 -71.95578 34280 ft 498 kts 352°
2026-04-20 19:20 38.16122 -71.95490 34277 ft 497 kts 352°
2026-04-20 19:20 38.23044 -71.95410 34278 ft 497 kts 352°
2026-04-20 19:21 38.29963 -71.95335 34276 ft 497 kts 352°
2026-04-20 19:21 38.36879 -71.95264 34276 ft 497 kts 352°
2026-04-20 19:22 38.43749 -71.95186 34264 ft 497 kts 353°
2026-04-20 19:22 38.50708 -71.95097 34264 ft 497 kts 353°
2026-04-20 19:23 38.57571 -71.95019 34267 ft 496 kts 353°
2026-04-20 19:23 38.64474 -71.94958 34274 ft 496 kts 353°
2026-04-20 19:24 38.71379 -71.94878 34276 ft 496 kts 353°
2026-04-20 19:24 38.78281 -71.94774 34269 ft 496 kts 353°
2026-04-20 19:25 38.85174 -71.94691 34266 ft 495 kts 353°
2026-04-20 19:25 38.92063 -71.94628 34267 ft 493 kts 350°
2026-04-20 19:25 38.95432 -71.95080 34264 ft 481 kts 340°
2026-04-20 19:26 38.98615 -71.96195 34263 ft 469 kts 330°
2026-04-20 19:26 39.01543 -71.97904 34267 ft 457 kts 321°
2026-04-20 19:26 39.04167 -72.00112 34256 ft 446 kts 313°
2026-04-20 19:27 39.08958 -72.05126 34257 ft 444 kts 311°
2026-04-20 19:27 39.13753 -72.10149 34256 ft 445 kts 311°
2026-04-20 19:28 39.18550 -72.15193 34256 ft 445 kts 311°
2026-04-20 19:28 39.23357 -72.20250 34254 ft 447 kts 311°
2026-04-20 19:29 39.28176 -72.25323 34244 ft 448 kts 311°
2026-04-20 19:29 39.33004 -72.30418 34232 ft 449 kts 312°
2026-04-20 19:30 39.37845 -72.35533 34227 ft 450 kts 312°
2026-04-20 19:30 39.42697 -72.40678 34217 ft 452 kts 312°
2026-04-20 19:31 39.47561 -72.45851 34213 ft 453 kts 312°
2026-04-20 19:31 39.52406 -72.51016 34212 ft 455 kts 312°
2026-04-20 19:32 39.57302 -72.56236 34213 ft 457 kts 313°
2026-04-20 19:32 39.62223 -72.61477 34211 ft 458 kts 313°
2026-04-20 19:33 39.67153 -72.66739 34217 ft 460 kts 313°
2026-04-20 19:33 39.72091 -72.72028 34219 ft 461 kts 313°
2026-04-20 19:34 39.77012 -72.77357 34227 ft 458 kts 309°
2026-04-20 19:34 39.79106 -72.80412 34232 ft 447 kts 299°
2026-04-20 19:34 39.80679 -72.83841 34222 ft 438 kts 288°
2026-04-20 19:35 39.82216 -72.91316 34230 ft 423 kts 269°
2026-04-20 19:35 39.82227 -72.98925 34230 ft 421 kts 265°
2026-04-20 19:36 39.82170 -73.06547 34233 ft 422 kts 266°
2026-04-20 19:36 39.82104 -73.14177 34222 ft 422 kts 266°
2026-04-20 19:37 39.82034 -73.21812 34222 ft 422 kts 266°
2026-04-20 19:37 39.81962 -73.29458 34223 ft 423 kts 266°
2026-04-20 19:38 39.81881 -73.37113 34157 ft 423 kts 266°
2026-04-20 19:38 39.81838 -73.40966 33205 ft 429 kts 266°
2026-04-20 19:38 39.81792 -73.44859 32345 ft 431 kts 266°
2026-04-20 19:38 39.81744 -73.48745 31674 ft 428 kts 267°
2026-04-20 19:39 39.81713 -73.51301 31248 ft 425 kts 267°
2026-04-20 19:39 39.81669 -73.55127 30606 ft 421 kts 267°
2026-04-20 19:39 39.81625 -73.58914 29877 ft 417 kts 267°
2026-04-20 19:39 39.81578 -73.62662 29163 ft 412 kts 266°
2026-04-20 19:40 39.81512 -73.67574 28129 ft 408 kts 266°
2026-04-20 19:40 39.81393 -73.71244 27464 ft 404 kts 264°
2026-04-20 19:40 39.81182 -73.74860 26847 ft 399 kts 263°
2026-04-20 19:40 39.81007 -73.77282 26446 ft 396 kts 262°
2026-04-20 19:41 39.80727 -73.80819 25839 ft 391 kts 262°
2026-04-20 19:41 39.80447 -73.84319 25225 ft 387 kts 262°
2026-04-20 19:41 39.80179 -73.87780 24621 ft 383 kts 262°
2026-04-20 19:41 39.79933 -73.91187 23762 ft 375 kts 262°
2026-04-20 19:42 39.79724 -73.94547 22782 ft 369 kts 266°
2026-04-20 19:42 39.79832 -73.97811 22362 ft 356 kts 271°
2026-04-20 19:42 39.79987 -74.00995 21894 ft 350 kts 270°
2026-04-20 19:42 39.80126 -74.04135 21451 ft 346 kts 271°
2026-04-20 19:43 39.80213 -74.06194 21159 ft 343 kts 271°
2026-04-20 19:43 39.80385 -74.10267 20603 ft 338 kts 271°
2026-04-20 19:43 39.80512 -74.13298 20189 ft 334 kts 271°
2026-04-20 19:43 39.80636 -74.16294 19784 ft 330 kts 271°
2026-04-20 19:44 39.80762 -74.19283 19475 ft 322 kts 271°
2026-04-20 19:44 39.80879 -74.22102 19345 ft 310 kts 271°
2026-04-20 19:44 39.80995 -74.24884 19162 ft 298 kts 271°
2026-04-20 19:44 39.81104 -74.27507 18724 ft 292 kts 271°
2026-04-20 19:45 39.81210 -74.30170 18143 ft 290 kts 271°
2026-04-20 19:45 39.81313 -74.32750 17544 ft 289 kts 271°
2026-04-20 19:45 39.81419 -74.35347 16948 ft 287 kts 272°
2026-04-20 19:45 39.81529 -74.37926 16450 ft 283 kts 273°
2026-04-20 19:46 39.81898 -74.40415 16050 ft 278 kts 286°
2026-04-20 19:46 39.82688 -74.42688 15667 ft 275 kts 298°
2026-04-20 19:46 39.83848 -74.44656 15270 ft 274 kts 311°
2026-04-20 19:46 39.85318 -74.46222 14884 ft 274 kts 322°
2026-04-20 19:47 39.86904 -74.47562 14493 ft 270 kts 322°
2026-04-20 19:47 39.88465 -74.48894 14103 ft 267 kts 322°
2026-04-20 19:47 39.90008 -74.50218 13688 ft 264 kts 322°
2026-04-20 19:47 39.91537 -74.51534 13298 ft 262 kts 322°
2026-04-20 19:48 39.93058 -74.52846 12916 ft 262 kts 322°
2026-04-20 19:48 39.94581 -74.54160 12530 ft 263 kts 322°
2026-04-20 19:48 39.96106 -74.55475 12149 ft 263 kts 322°
2026-04-20 19:48 39.97633 -74.56789 11759 ft 263 kts 323°
2026-04-20 19:49 39.99292 -74.57847 11371 ft 269 kts 337°
2026-04-20 19:49 40.01135 -74.58361 10982 ft 275 kts 351°
2026-04-20 19:49 40.03064 -74.58267 10763 ft 285 kts
2026-04-20 19:49 40.04997 -74.57538 10553 ft 293 kts 18°
2026-04-20 19:50 40.06892 -74.56533 10316 ft 294 kts 18°
2026-04-20 19:50 40.08781 -74.55539 10086 ft 293 kts 17°
2026-04-20 19:50 40.10667 -74.54548 9840 ft 291 kts 17°
2026-04-20 19:50 40.12542 -74.53562 9610 ft 289 kts 18°
2026-04-20 19:51 40.14404 -74.52581 9380 ft 288 kts 18°
2026-04-20 19:51 40.16253 -74.51604 9162 ft 286 kts 18°
2026-04-20 19:51 40.18129 -74.50834 8936 ft 279 kts
2026-04-20 19:51 40.20033 -74.50817 8720 ft 271 kts 346°
2026-04-20 19:52 40.21805 -74.51529 8512 ft 264 kts 330°
2026-04-20 19:52 40.23312 -74.52849 8315 ft 259 kts 317°
2026-04-20 19:52 40.24688 -74.54373 8107 ft 259 kts 317°
2026-04-20 19:52 40.26067 -74.55883 7901 ft 257 kts 318°
2026-04-20 19:53 40.27441 -74.57383 7703 ft 257 kts 318°
2026-04-20 19:53 40.28809 -74.58877 7505 ft 256 kts 319°
2026-04-20 19:53 40.30174 -74.60367 7306 ft 255 kts 319°
2026-04-20 19:53 40.31532 -74.61800 7109 ft 254 kts 324°
2026-04-20 19:54 40.33126 -74.62859 6901 ft 255 kts 339°
2026-04-20 19:54 40.34804 -74.63596 6686 ft 253 kts 339°
2026-04-20 19:54 40.36441 -74.64321 6484 ft 249 kts 339°
2026-04-20 19:54 40.38048 -74.65039 6351 ft 239 kts 339°
2026-04-20 19:55 40.39623 -74.65611 6210 ft 232 kts 353°
2026-04-20 19:55 40.41197 -74.65362 6069 ft 228 kts 17°
2026-04-20 19:55 40.42509 -74.64260 5926 ft 224 kts 44°
2026-04-20 19:55 40.43323 -74.62552 5742 ft 222 kts 68°
2026-04-20 19:56 40.43774 -74.60643 5551 ft 214 kts 70°
2026-04-20 19:56 40.44200 -74.58818 5412 ft 204 kts 69°
2026-04-20 19:56 40.44613 -74.57063 5189 ft 200 kts 68°
2026-04-20 19:56 40.45027 -74.55324 4919 ft 199 kts 68°
2026-04-20 19:57 40.45437 -74.53598 4736 ft 198 kts 69°
2026-04-20 19:57 40.45848 -74.51870 4561 ft 198 kts 68°
2026-04-20 19:57 40.46258 -74.50147 4410 ft 198 kts 68°
2026-04-20 19:57 40.46667 -74.48422 4256 ft 198 kts 68°
2026-04-20 19:58 40.47072 -74.46699 4106 ft 197 kts 68°
2026-04-20 19:58 40.47477 -74.44981 3955 ft 196 kts 68°
2026-04-20 19:58 40.47880 -74.43279 3794 ft 194 kts 68°
2026-04-20 19:58 40.48282 -74.41584 3646 ft 195 kts 69°
2026-04-20 19:59 40.48682 -74.39888 3490 ft 194 kts 68°
2026-04-20 19:59 40.49081 -74.38192 3348 ft 194 kts 69°
2026-04-20 19:59 40.49479 -74.36499 3231 ft 194 kts 69°
2026-04-20 19:59 40.49878 -74.34802 3161 ft 194 kts 69°
2026-04-20 20:00 40.50277 -74.33108 3065 ft 194 kts 69°
2026-04-20 20:00 40.50675 -74.31415 3006 ft 193 kts 69°
2026-04-20 20:00 40.51077 -74.29729 3010 ft 194 kts 65°
2026-04-20 20:00 40.51719 -74.28207 3009 ft 188 kts 47°
2026-04-20 20:01 40.52679 -74.27098 3048 ft 181 kts 27°
2026-04-20 20:01 40.53791 -74.26307 3025 ft 181 kts 22°
2026-04-20 20:01 40.54921 -74.25572 2931 ft 182 kts 21°
2026-04-20 20:01 40.56037 -74.24858 2700 ft 173 kts 21°
2026-04-20 20:02 40.57088 -74.24190 2485 ft 163 kts 20°
2026-04-20 20:02 40.58094 -74.23553 2288 ft 158 kts 22°
2026-04-20 20:02 40.59082 -74.22928 2066 ft 158 kts 20°
2026-04-20 20:02 40.60067 -74.22304 1842 ft 156 kts 21°
2026-04-20 20:03 40.61037 -74.21689 1642 ft 150 kts 20°
2026-04-20 20:03 40.61958 -74.21105 1422 ft 144 kts 20°
2026-04-20 20:03 40.62863 -74.20532 1229 ft 143 kts 20°
2026-04-20 20:03 40.63757 -74.19965 1030 ft 143 kts 20°
2026-04-20 20:04 40.64644 -74.19403 779 ft 141 kts 20°
2026-04-20 20:04 40.65528 -74.18837 536 ft 142 kts 20°
2026-04-20 20:04 40.66405 -74.18290 369 ft 138 kts 19°
2026-04-20 20:04 40.67270 -74.17731 194 ft 138 kts 22°
2026-04-20 20:05 40.68127 -74.17174 51 ft 138 kts 20°
2026-04-20 20:05 40.68928 -74.16668 31 ft 113 kts 21°
2026-04-20 20:05 40.69524 -74.16314 21 ft 77 kts 26°
2026-04-20 20:05 40.69742 -74.16179 19 ft 12 kts
2026-04-20 20:06 40.69802 -74.16221 19 ft 8 kts 318°
2026-04-20 20:06 40.69832 -74.16284 21 ft 9 kts 295°
2026-04-20 20:06 40.69855 -74.16367 20 ft 11 kts 292°
2026-04-20 20:06 40.69887 -74.16469 18 ft 12 kts 292°
2026-04-20 20:07 40.69903 -74.16536 18 ft 4 kts 281°
2026-04-20 20:07 40.69905 -74.16556 18 ft 1 kts 277°
2026-04-20 20:07 40.69886 -74.16598 19 ft 9 kts 225°
2026-04-20 20:07 40.69829 -74.16654 19 ft 11 kts 222°
2026-04-20 20:08 40.69783 -74.16749 21 ft 13 kts 242°
2026-04-20 20:08 40.69710 -74.16842 20 ft 16 kts 208°
2026-04-20 20:08 40.69607 -74.16910 20 ft 18 kts 206°
2026-04-20 20:08 40.69490 -74.16984 20 ft 17 kts 206°
2026-04-20 20:09 40.69378 -74.17056 20 ft 16 kts 205°
2026-04-20 20:09 40.69276 -74.17119 20 ft 17 kts 205°
2026-04-20 20:09 40.69187 -74.17175 20 ft 12 kts 205°
2026-04-20 20:09 40.69104 -74.17227 20 ft 15 kts 206°
2026-04-20 20:10 40.69011 -74.17287 20 ft 14 kts 206°
2026-04-20 20:10 40.68918 -74.17346 20 ft 15 kts 206°
2026-04-20 20:10 40.68818 -74.17411 20 ft 17 kts 206°
2026-04-20 20:10 40.68724 -74.17473 21 ft 15 kts 206°
2026-04-20 20:11 40.68630 -74.17538 20 ft 13 kts 219°
2026-04-20 20:11 40.68629 -74.17640 21 ft 11 kts 292°
2026-04-20 20:11 40.68671 -74.17704 20 ft 9 kts 345°
2026-04-20 20:11 40.68711 -74.17706 20 ft 4 kts 359°
2026-04-20 20:12 40.68723 -74.17706 20 ft 2 kts